Weather observations for the past three days for
Newport, Newport Municipal Airport
Metric (Imperial)
Date Time (cdt) Wind (kph) Vis. (km) Weather Sky Cond. Temperature (ºC) Relative Humidity Wind Chill (°C) Heat Index (°C) Pressure Precipitation (cm)
Air Dwpt 6 hour altimeter (cm) sea level (mb) 1 hr 3 hr 6 hr
Max. Min.
09 14:56 SE 7 16.09 Fair CLR 27.8 8.3 29% 27 75.82 1012.1
09 13:56 Calm 16.09 Fair CLR 26.7 11.7 39% 27 75.84 1012.4
09 11:56 Calm 16.09 Fair CLR 25 12.2 45% 26 75.87 1012.8
09 10:56 NW 9 16.09 Fair CLR 23.3 13.3 54% 75.87 1012.6
09 09:56 N 13 16.09 Fair CLR 22.2 14.4 61% 75.87 1012.8
09 08:56 NW 11 16.09 Fair CLR 20.6 13.9 66% 75.87 1012.7
09 07:56 NW 9 16.09 Fair CLR 17.8 13.3 75% 75.84 1012.3
09 06:56 NW 7 16.09 Fair CLR 15 12.8 16.7 14.4 87% 75.77 1011.5
09 05:56 W 9 16.09 Fair CLR 15.6 12.2 80% 75.72 1010.7
09 04:56 W 7 16.09 Fair CLR 15.6 12.8 84% 75.72 1010.6
09 03:56 SW 9 16.09 Fair CLR 16.1 12.2 78% 75.72 1010.7
09 02:56 S 15 16.09 Fair CLR 15 12.8 87% 75.74 1011.0
09 01:56 SW 7 16.09 Fair CLR 16.1 13.3 84% 75.72 1010.5
09 00:56 Calm 16.09 Fair CLR 16.7 12.8 22.2 16.7 78% 75.74 1010.8
08 23:56 S 20 16.09 Fair CLR 17.8 12.8 73% 75.69 1010.2
08 22:56 S 13 16.09 Fair CLR 17.2 13.3 78% 75.74 1011.1
08 21:56 SW 7 16.09 Fair CLR 18.3 11.7 66% 75.84 1012.2
08 20:56 S 11 16.09 Fair CLR 17.8 12.2 70% 75.74 1011.1
08 19:56 SW 9 16.09 A Few Clouds FEW001 19.4 11.1 59% 75.77 1011.3
08 18:56 S 20 16.09 Fair CLR 22.2 11.7 23.9 22.2 52% 75.74 1011.2
08 17:56 S 20 16.09 A Few Clouds FEW001 23.3 10.6 45% 75.77 1011.4
08 16:56 S 20 16.09 Fair CLR 23.9 10.6 43% 25 75.77 1011.5
08 15:56 S 19 G 30 16.09 Fair CLR 23.9 11.1 45% 25 75.82 1012.2
08 14:56 S 19 16.09 Fair CLR 23.3 10.6 45% 75.87 1012.9
08 13:56 S 20 16.09 Fair CLR 22.8 10.6 46% 75.92 1013.6
08 12:56 S 20 G 30 16.09 Fair CLR 22.2 11.1 22.2 11.7 50% 76.05 1015.0
08 11:56 S 22 16.09 Fair CLR 21.1 11.1 53% 76.12 1016.2
08 10:56 S 17 16.09 Fair CLR 20.6 11.1 55% 76.17 1017.0
08 09:56 S 19 16.09 Fair CLR 18.3 11.1 63% 76.23 1017.3
08 08:56 S 15 16.09 Fair CLR 16.7 11.1 70% 76.25 1017.9
08 07:56 S 15 16.09 Fair CLR 13.9 11.1 83% 76.25 1018.0
08 06:56 S 11 16.09 Fair CLR 11.7 10.6 12.8 10 93% 76.23 1017.6
08 05:56 S 11 16.09 Fair CLR 10 9.4 96% 9 76.2 1017.1
08 04:56 S 9 16.09 Fair CLR 10.6 9.4 92% 76.2 1017.2
08 03:56 SW 7 16.09 Fair CLR 11.7 10 89% 76.23 1017.4
08 02:56 SE 6 16.09 Fair CLR 12.2 10.6 90% 76.2 1017.2
08 00:56 S 7 16.09 Fair CLR 12.8 10.6 18.9 12.8 87% 76.25 1017.8
07 23:56 S 7 16.09 Fair CLR 13.3 11.1 87% 76.25 1017.8
07 22:56 S 9 16.09 Fair CLR 13.9 11.1 83% 76.25 1018.0
07 21:56 SE 13 16.09 Fair CLR 14.4 11.7 84% 76.23 1017.5
07 20:56 SE 13 16.09 Fair CLR 15 10.6 75% 76.2 1017.1
07 19:56 SE 9 16.09 Fair CLR 16.7 10.6 67% 76.15 1016.6
07 18:56 SE 13 14.48 Fair CLR 18.9 8.3 21.1 17.2 50% 76.15 1016.5
07 17:56 S 11 16.09 A Few Clouds FEW065 18.9 8.3 50% 76.17 1016.8
07 16:56 E 11 16.09 Mostly Cloudy BKN065 19.4 8.9 51% 76.17 1016.9
07 15:56 NE 11 16.09 Fair CLR 20 8.3 47% 76.2 1017.0
07 14:56 Calm 16.09 Fair CLR 19.4 7.2 45% 76.25 1018.0
07 13:56 SW 9 16.09 Partly Cloudy SCT050 18.9 6.7 45% 76.33 1018.8
07 12:56 N 7 14.48 A Few Clouds FEW047 17.2 6.1 17.8 8.3 48% 76.35 1019.2
07 11:56 W 7 16.09 Fair CLR 16.7 6.1 50% 76.43 1020.1
07 10:56 Vrbl 7 16.09 Fair CLR 16.7 8.3 58% 76.43 1020.3
07 09:56 N 11 16.09 Fair CLR 14.4 7.8 65% 76.45 1020.7
07 08:56 N 9 16.09 Fair CLR 12.8 7.8 72% 76.45 1020.6
07 07:56 N 13 16.09 Fair CLR 10.6 7.8 83% 76.43 1020.4
07 06:56 N 7 16.09 Fair CLR 8.3 7.2 11.7 7.2 93% 7 76.38 1019.8
07 05:56 N 9 16.09 Fair CLR 7.2 6.7 97% 6 76.35 1019.3
07 04:56 N 9 16.09 Fair CLR 8.3 7.8 97% 7 76.33 1018.9
07 03:56 NW 11 16.09 Fair CLR 8.9 8.3 96% 7 76.3 1018.7
07 02:56 NW 7 16.09 Fair CLR 10 9.4 96% 9 76.28 1018.3
07 01:56 NW 9 16.09 Fair CLR 10.6 10 96% 76.3 1018.5
07 00:56 NW 6 16.09 Fair CLR 11.1 10.6 12.8 11.1 97% 76.3 1018.6
06 23:56 NW 7 16.09 Overcast OVC075 12.2 11.1 93% 76.28 1018.4
06 22:56 Calm 16.09 Overcast OVC070 12.2 11.1 93% 76.3 1018.6
06 21:56 Calm 16.09 Overcast OVC110 11.7 10.6 93% 76.23 1017.6
06 20:56 NW 6 16.09 Fair CLR 11.7 10 89% 76.2 1017.4
06 19:56 N 7 16.09 Fair CLR 12.2 9.4 83% 76.17 1016.9
06 18:56 SE 6 16.09 A Few Clouds FEW110 12.8 9.4 13.3 11.7 80% 76.23 1017.4 0.03 0.08
06 17:56 SE 7 16.09 Mostly Cloudy BKN120 13.3 9.4 77% 76.2 1017.2
06 16:56 NE 13 16.09 Fair CLR 12.8 8.9 77% 76.1 1015.9
06 15:56 NE 17 16.09 Light Rain FEW036 BKN070 OVC110 12.2 8.3 77% 76.15 1016.6 0.03 0.05
Date Time (cdt) Wind (kph) Vis. (km) Weather Sky Cond. Air Dwpt Max. Min. Relative Humidity Wind Chill (°C) Heat Index (°C) altimeter (cm) sea level (mb) 1 hr 3 hr 6 hr
6 hour
Temperature (ºC) Pressure Precipitation (cm)